When you browse on this site, cookies collect data to enhance your experience and personalize the content and advertising you see.
Visit our Privacy Policy to learn more. By continuing to use the site, you agree to this use of cookies and data.
  • In Hungary
  • List of Countries
  • For 7 days
  • Water Temperature
  • Satellite Maps
  • Weather Map
  • News
  • Weather Widgets
  • user-avatar
    Login

    Hourly Weather Nicastro

    Today, 26 June, Wednesday

    Time Temperature Precipitation Wind Pressure Humidity
    00:00 +20°C° 0 mm 2 mps 731 mmHg 76%
    01:00 +20°C° 0 mm 2 mps 730 mmHg 74%
    02:00 +20°C° 0 mm 2 mps 730 mmHg 73%
    03:00 +20°C° 0 mm 2 mps 730 mmHg 72%
    04:00 +21°C° 0 mm 2 mps 730 mmHg 72%
    05:00 +23°C° 0 mm 2 mps 730 mmHg 67%
    06:00 +25°C° 0 mm 1 mps 730 mmHg 62%
    07:00 +27°C° 0 mm 1 mps 731 mmHg 55%
    08:00 +29°C° 0 mm 1 mps 731 mmHg 52%
    09:00 +30°C° 0 mm 2 mps 731 mmHg 48%
    10:00 +31°C° 0 mm 2 mps 731 mmHg 45%
    11:00 +31°C° 0.1 mm 2 mps 731 mmHg 47%
    12:00 +31°C° 0.1 mm 2 mps 731 mmHg 49%
    13:00 +32°C° 0 mm 2 mps 731 mmHg 49%
    14:00 +31°C° 0.2 mm 2 mps 731 mmHg 50%
    15:00 +31°C° 0.2 mm 2 mps 731 mmHg 52%
    16:00 +30°C° 0.2 mm 2 mps 730 mmHg 53%
    17:00 +28°C° 0.1 mm 2 mps 730 mmHg 60%
    18:00 +27°C° 0.1 mm 1 mps 730 mmHg 67%
    19:00 +25°C° 0.1 mm 1 mps 730 mmHg 73%
    20:00 +24°C° 0 mm 1 mps 730 mmHg 73%
    21:00 +23°C° 0 mm 2 mps 730 mmHg 74%
    22:00 +23°C° 0 mm 2 mps 730 mmHg 74%
    23:00 +21°C° 0 mm 2 mps 730 mmHg 72%

    Tomorrow, 27 June, Thursday

    Time Temperature Precipitation Wind Pressure Humidity
    00:00 +21°C° 0 mm 2 mps 730 mmHg 71%
    01:00 +21°C° 0 mm 2 mps 730 mmHg 70%
    02:00 +21°C° 0 mm 2 mps 730 mmHg 70%
    03:00 +21°C° 0 mm 2 mps 730 mmHg 70%
    04:00 +22°C° 0 mm 1 mps 729 mmHg 71%
    05:00 +24°C° 0 mm 1 mps 730 mmHg 66%
    06:00 +26°C° 0 mm 1 mps 730 mmHg 61%
    07:00 +27°C° 0 mm 1 mps 730 mmHg 56%
    08:00 +29°C° 0.1 mm 1 mps 730 mmHg 54%
    09:00 +30°C° 0.1 mm 1 mps 730 mmHg 51%
    10:00 +31°C° 0.1 mm 2 mps 730 mmHg 48%
    11:00 +31°C° 0.3 mm 2 mps 730 mmHg 49%
    12:00 +31°C° 0.3 mm 2 mps 730 mmHg 50%
    13:00 +31°C° 0.3 mm 2 mps 730 mmHg 51%
    14:00 +31°C° 0.3 mm 2 mps 730 mmHg 52%
    15:00 +30°C° 0.3 mm 2 mps 729 mmHg 53%
    16:00 +30°C° 0.3 mm 2 mps 729 mmHg 55%
    17:00 +28°C° 0.1 mm 1 mps 729 mmHg 62%
    18:00 +27°C° 0.1 mm 1 mps 728 mmHg 70%
    19:00 +25°C° 0.1 mm 1 mps 728 mmHg 77%
    20:00 +24°C° 0 mm 1 mps 728 mmHg 78%
    21:00 +23°C° 0 mm 1 mps 728 mmHg 78%
    22:00 +22°C° 0 mm 1 mps 728 mmHg 78%
    23:00 +21°C° 0 mm 2 mps 728 mmHg 77%

    Day after tomorrow, 28 June, Friday

    Time Temperature Precipitation Wind Pressure Humidity
    00:00 +21°C° 0 mm 2 mps 728 mmHg 75%
    01:00 +21°C° 0 mm 2 mps 728 mmHg 73%
    02:00 +21°C° 0 mm 2 mps 727 mmHg 74%
    03:00 +21°C° 0 mm 2 mps 727 mmHg 74%
    04:00 +21°C° 0 mm 2 mps 727 mmHg 74%
    05:00 +23°C° 0 mm 1 mps 727 mmHg 70%
    06:00 +25°C° 0 mm 1 mps 727 mmHg 66%
    07:00 +27°C° 0 mm 1 mps 727 mmHg 61%
    08:00 +28°C° 0 mm 2 mps 727 mmHg 56%
    09:00 +30°C° 0 mm 2 mps 727 mmHg 51%
    10:00 +32°C° 0 mm 2 mps 727 mmHg 45%
    11:00 +33°C° 0 mm 3 mps 727 mmHg 46%
    12:00 +33°C° 0 mm 3 mps 727 mmHg 46%
    13:00 +33°C° 0 mm 3 mps 727 mmHg 47%
    14:00 +33°C° 0.1 mm 3 mps 727 mmHg 49%
    15:00 +31°C° 0.1 mm 2 mps 727 mmHg 51%
    16:00 +31°C° 0.1 mm 2 mps 726 mmHg 53%
    17:00 +29°C° 0 mm 2 mps 726 mmHg 61%
    18:00 +27°C° 0 mm 2 mps 726 mmHg 69%
    19:00 +25°C° 0 mm 1 mps 726 mmHg 77%
    20:00 +25°C° 0 mm 2 mps 726 mmHg 77%
    21:00 +24°C° 0 mm 2 mps 726 mmHg 78%
    22:00 +23°C° 0 mm 2 mps 726 mmHg 78%
    23:00 +23°C° 0 mm 2 mps 726 mmHg 77%

    29 June, Saturday

    Time Temperature Precipitation Wind Pressure Humidity
    00:00 +23°C° 0 mm 2 mps 726 mmHg 77%
    01:00 +23°C° 0 mm 2 mps 726 mmHg 76%
    02:00 +21°C° 0 mm 2 mps 726 mmHg 75%
    03:00 +21°C° 0 mm 2 mps 726 mmHg 75%
    04:00 +21°C° 0 mm 2 mps 725 mmHg 74%
    05:00 +23°C° 0 mm 2 mps 726 mmHg 69%
    06:00 +25°C° 0 mm 2 mps 726 mmHg 64%
    07:00 +26°C° 0 mm 1 mps 727 mmHg 59%
    08:00 +28°C° 0 mm 2 mps 727 mmHg 50%
    09:00 +30°C° 0 mm 2 mps 727 mmHg 42%
    10:00 +32°C° 0 mm 2 mps 728 mmHg 33%
    11:00 +32°C° 0 mm 2 mps 728 mmHg 34%
    12:00 +33°C° 0 mm 3 mps 728 mmHg 35%
    13:00 +33°C° 0 mm 3 mps 728 mmHg 36%
    14:00 +33°C° 0 mm 3 mps 728 mmHg 37%
    15:00 +31°C° 0 mm 3 mps 728 mmHg 39%
    16:00 +30°C° 0 mm 3 mps 728 mmHg 41%
    17:00 +28°C° 0 mm 2 mps 727 mmHg 51%
    18:00 +26°C° 0 mm 2 mps 727 mmHg 60%
    19:00 +24°C° 0 mm 1 mps 727 mmHg 69%
    20:00 +23°C° 0 mm 1 mps 728 mmHg 68%
    21:00 +21°C° 0 mm 2 mps 728 mmHg 66%
    22:00 +20°C° 0 mm 2 mps 728 mmHg 64%
    23:00 +20°C° 0 mm 2 mps 728 mmHg 62%

    30 June, Sunday

    Time Temperature Precipitation Wind Pressure Humidity
    00:00 +20°C° 0 mm 2 mps 728 mmHg 60%
    01:00 +19°C° 0 mm 2 mps 728 mmHg 57%
    02:00 +20°C° 0 mm 2 mps 728 mmHg 57%
    03:00 +20°C° 0 mm 2 mps 728 mmHg 56%
    04:00 +20°C° 0 mm 2 mps 728 mmHg 56%
    05:00 +23°C° 0 mm 1 mps 728 mmHg 52%
    06:00 +25°C° 0 mm 1 mps 729 mmHg 49%
    07:00 +25°C° 0 mm 0 mps 729 mmHg 45%
    08:00 +28°C° 0 mm 1 mps 729 mmHg 42%
    09:00 +30°C° 0 mm 1 mps 730 mmHg 39%
    10:00 +31°C° 0 mm 2 mps 730 mmHg 36%
    11:00 +32°C° 0 mm 2 mps 730 mmHg 36%
    12:00 +32°C° 0 mm 2 mps 730 mmHg 35%
    13:00 +33°C° 0 mm 3 mps 730 mmHg 35%
    14:00 +32°C° 0 mm 2 mps 730 mmHg 36%
    15:00 +31°C° 0 mm 2 mps 730 mmHg 37%
    16:00 +31°C° 0 mm 2 mps 730 mmHg 38%
    17:00 +29°C° 0 mm 2 mps 730 mmHg 45%
    18:00 +27°C° 0 mm 1 mps 730 mmHg 52%
    19:00 +25°C° 0 mm 1 mps 730 mmHg 59%
    20:00 +24°C° 0 mm 1 mps 730 mmHg 59%
    21:00 +23°C° 0 mm 1 mps 730 mmHg 59%
    22:00 +22°C° 0 mm 1 mps 730 mmHg 60%
    23:00 +22°C° 0 mm 1 mps 730 mmHg 60%

    1 July, Monday

    Time Temperature Precipitation Wind Pressure Humidity
    00:00 +22°C° 0 mm 1 mps 730 mmHg 59%
    01:00 +22°C° 0 mm 1 mps 730 mmHg 59%
    02:00 +21°C° 0 mm 1 mps 730 mmHg 59%
    03:00 +21°C° 0 mm 1 mps 730 mmHg 58%
    04:00 +21°C° 0 mm 1 mps 730 mmHg 57%
    05:00 +23°C° 0 mm 1 mps 730 mmHg 53%
    06:00 +25°C° 0 mm 1 mps 730 mmHg 49%
    07:00 +25°C° 0 mm 0 mps 731 mmHg 45%
    08:00 +28°C° 0 mm 1 mps 731 mmHg 41%
    09:00 +30°C° 0 mm 1 mps 731 mmHg 37%
    10:00 +31°C° 0 mm 2 mps 732 mmHg 34%
    11:00 +32°C° 0 mm 2 mps 731 mmHg 35%
    12:00 +32°C° 0 mm 2 mps 731 mmHg 36%
    13:00 +33°C° 0 mm 3 mps 731 mmHg 37%
    14:00 +31°C° 0 mm 2 mps 731 mmHg 38%
    15:00 +31°C° 0 mm 2 mps 731 mmHg 40%
    16:00 +30°C° 0 mm 2 mps 730 mmHg 41%
    17:00 +28°C° 0 mm 1 mps 730 mmHg 50%
    18:00 +26°C° 0 mm 1 mps 730 mmHg 59%
    19:00 +22°C° 0 mm 0 mps 730 mmHg 67%
    20:00 +23°C° 0 mm 1 mps 730 mmHg 65%
    21:00 +23°C° 0 mm 1 mps 730 mmHg 63%
    22:00 +22°C° 0 mm 1 mps 730 mmHg 61%
    23:00 +22°C° 0 mm 1 mps 730 mmHg 58%
    Show more